This is the latest recevied weather packets stored in our database for station/object VE6CPK-13. If no packets are shown the sender has not sent any weather packets the latest 10 day(s).
| Time | Temp. | Humidity | Pressure | Rain* | Wind** | Luminosity | Snow |
|---|---|---|---|---|---|---|---|
| 1777921111 | 12.22° C | 30% | 1011.7 hPa | 0 mm | - | - | - |
| 1777920811 | 12.22° C | 29% | 1011.7 hPa | 0 mm | - | - | - |
| 1777920511 | 12.22° C | 29% | 1011.7 hPa | 0 mm | - | - | - |
| 1777920210 | 12.22° C | 28% | 1011.8 hPa | 0 mm | - | - | - |
| 1777919910 | 12.78° C | 28% | 1011.9 hPa | 0 mm | - | - | - |
| 1777919610 | 12.78° C | 27% | 1011.8 hPa | 0 mm | - | - | - |
| 1777919309 | 12.22° C | 31% | 1011.8 hPa | 0 mm | - | - | - |
| 1777919009 | 12.22° C | 30% | 1011.8 hPa | 0 mm | - | - | - |
| 1777918710 | 11.67° C | 30% | 1011.7 hPa | 0 mm | - | - | - |
| 1777918409 | 11.67° C | 32% | 1011.8 hPa | 0 mm | - | - | - |
| 1777918110 | 11.67° C | 31% | 1011.9 hPa | 0 mm | - | - | - |
| 1777917810 | 11.67° C | 32% | 1011.8 hPa | 0 mm | - | - | - |
| 1777917511 | 11.11° C | 33% | 1011.8 hPa | 0 mm | - | - | - |
| 1777917209 | 11.11° C | 35% | 1011.8 hPa | 0 mm | - | - | - |
| 1777916911 | 10.56° C | 35% | 1011.8 hPa | 0 mm | - | - | - |
| 1777916610 | 10.56° C | 38% | 1011.8 hPa | 0 mm | - | - | - |
| 1777916313 | 10.56° C | 37% | 1011.8 hPa | 0 mm | - | - | - |
| 1777916013 | 10.56° C | 38% | 1011.9 hPa | 0 mm | - | - | - |
| 1777915715 | 10.56° C | 41% | 1011.8 hPa | 0 mm | - | - | - |
| 1777915414 | 10° C | 41% | 1011.8 hPa | 0 mm | - | - | - |
| 1777915115 | 10.56° C | 40% | 1011.8 hPa | 0 mm | - | - | - |
| 1777914815 | 10° C | 40% | 1011.8 hPa | 0 mm | - | - | - |
| 1777914514 | 10.56° C | 40% | 1011.8 hPa | 0 mm | - | - | - |
| 1777914213 | 10.56° C | 40% | 1011.8 hPa | 0 mm | - | - | - |
| 1777913914 | 10° C | 43% | 1011.8 hPa | 0 mm | - | - | - |
* Rain latest hour (hover to see other rain measurements)
** Current wind speed in m/s (hover to see current wind gust speed)